CES5402 VDPP-WSSS

Flight info

Callsign CES5402
Flight time 1h 33m
Altitude 36000
Route KISAN M755 BITOD/K0852F370 M753 IPRIX/N0460F370 Q802 ELALO
Aircraft A320/M-SDE2E3FGILRWXY/LB2

Departure

Time 2026-05-08 01:53
Airport Phnom Penh International Airport (VDPP)

Arrival

Time 2026-05-08 03:26
Airport Singapore Changi Airport (WSSS)
Time Latitude Longitude Altitude Speed Heading
2026-05-08 01:35 11.55243 104.84582 63 ft 0 kts 291°
2026-05-08 01:43 11.55237 104.84597 57 ft 4 kts 292°
2026-05-08 01:44 11.55227 104.84622 55 ft 4 kts 299°
2026-05-08 01:44 11.55215 104.84638 55 ft 4 kts 324°
2026-05-08 01:44 11.55193 104.84644 55 ft 4 kts 23°
2026-05-08 01:44 11.55176 104.84634 57 ft 1 kts 45°
2026-05-08 01:45 11.55174 104.84632 55 ft 0 kts 45°
2026-05-08 01:45 11.55174 104.84631 55 ft 0 kts 45°
2026-05-08 01:46 11.55174 104.84632 55 ft 0 kts 45°
2026-05-08 01:47 11.55180 104.84638 57 ft 2 kts 45°
2026-05-08 01:47 11.55198 104.84656 56 ft 5 kts 45°
2026-05-08 01:47 11.55224 104.84687 55 ft 7 kts 57°
2026-05-08 01:48 11.55199 104.84789 60 ft 10 kts 136°
2026-05-08 01:48 11.55147 104.84841 62 ft 11 kts 135°
2026-05-08 01:48 11.55130 104.84908 63 ft 11 kts 59°
2026-05-08 01:48 11.55188 104.84971 60 ft 13 kts 45°
2026-05-08 01:49 11.55257 104.85043 58 ft 16 kts 46°
2026-05-08 01:49 11.55340 104.85129 54 ft 18 kts 46°
2026-05-08 01:49 11.55436 104.85227 59 ft 20 kts 44°
2026-05-08 01:49 11.55506 104.85301 54 ft 11 kts 46°
2026-05-08 01:50 11.55539 104.85357 64 ft 9 kts 67°
2026-05-08 01:50 11.55566 104.85404 59 ft 6 kts 29°
2026-05-08 01:50 11.55592 104.85390 60 ft 4 kts 287°
2026-05-08 01:50 11.55584 104.85374 58 ft 3 kts 223°
2026-05-08 01:51 11.55568 104.85363 60 ft 2 kts 216°
2026-05-08 01:51 11.55548 104.85344 61 ft 4 kts 225°
2026-05-08 01:51 11.55545 104.85342 57 ft 0 kts 225°
2026-05-08 01:52 11.55515 104.85311 54 ft 22 kts 225°
2026-05-08 01:52 11.55193 104.84976 61 ft 106 kts 225°
2026-05-08 01:52 11.54521 104.84276 62 ft 167 kts 226°
2026-05-08 01:53 11.53662 104.83378 672 ft 178 kts 223°
2026-05-08 01:53 11.52631 104.82750 1577 ft 176 kts 193°
2026-05-08 01:53 11.51427 104.82561 2488 ft 175 kts 183°
2026-05-08 01:53 11.50159 104.82476 3139 ft 193 kts 181°
2026-05-08 01:54 11.48766 104.82397 3419 ft 211 kts 181°
2026-05-08 01:54 11.47210 104.82291 3645 ft 236 kts 182°
2026-05-08 01:54 11.45495 104.82152 4062 ft 255 kts 183°
2026-05-08 01:54 11.43700 104.81986 4782 ft 262 kts 184°
2026-05-08 01:55 11.41869 104.81801 5547 ft 267 kts 184°
2026-05-08 01:55 11.40009 104.81606 6335 ft 271 kts 183°
2026-05-08 01:55 11.38124 104.81403 7068 ft 274 kts 183°
2026-05-08 01:55 11.36213 104.81194 7801 ft 278 kts 184°
2026-05-08 01:56 11.34278 104.80982 8529 ft 281 kts 184°
2026-05-08 01:56 11.32324 104.80731 9248 ft 285 kts 186°
2026-05-08 01:56 11.30352 104.80414 9971 ft 288 kts 187°
2026-05-08 01:56 11.28343 104.80062 10399 ft 302 kts 188°
2026-05-08 01:57 11.26191 104.79681 10547 ft 325 kts 188°
2026-05-08 01:57 11.23883 104.79278 10685 ft 347 kts 188°
2026-05-08 01:57 11.21444 104.78854 10876 ft 362 kts 188°
2026-05-08 01:57 11.18937 104.78421 11358 ft 368 kts 188°
2026-05-08 01:58 11.16402 104.77991 11905 ft 371 kts 188°
2026-05-08 01:58 11.13840 104.77561 12467 ft 374 kts 187°
2026-05-08 01:58 11.11262 104.77131 13022 ft 377 kts 188°
2026-05-08 01:58 11.08661 104.76696 13588 ft 380 kts 188°
2026-05-08 01:59 11.06040 104.76256 14086 ft 383 kts 188°
2026-05-08 01:59 11.03401 104.75812 14565 ft 386 kts 187°
2026-05-08 01:59 11.00745 104.75364 15043 ft 388 kts 187°
2026-05-08 01:59 10.98073 104.74913 15523 ft 391 kts 187°
2026-05-08 02:00 10.95383 104.74457 16010 ft 393 kts 187°
2026-05-08 02:00 10.92679 104.74001 16480 ft 395 kts 187°
2026-05-08 02:00 10.89952 104.73547 16965 ft 398 kts 187°
2026-05-08 02:00 10.87214 104.73092 17432 ft 400 kts 187°
2026-05-08 02:01 10.84453 104.72631 17903 ft 403 kts 187°
2026-05-08 02:01 10.81682 104.72167 18343 ft 405 kts 187°
2026-05-08 02:01 10.78891 104.71699 18738 ft 408 kts 187°
2026-05-08 02:01 10.76084 104.71227 19126 ft 410 kts 187°
2026-05-08 02:02 10.73260 104.70749 19534 ft 412 kts 187°
2026-05-08 02:02 10.70420 104.70269 19927 ft 415 kts 187°
2026-05-08 02:02 10.67565 104.69790 20317 ft 417 kts 187°
2026-05-08 02:02 10.64696 104.69311 20701 ft 419 kts 187°
2026-05-08 02:03 10.61805 104.68831 21077 ft 422 kts 187°
2026-05-08 02:03 10.58906 104.68348 21455 ft 424 kts 187°
2026-05-08 02:03 10.55983 104.67859 21816 ft 426 kts 188°
2026-05-08 02:03 10.53051 104.67367 22167 ft 428 kts 188°
2026-05-08 02:04 10.50107 104.66857 22504 ft 431 kts 188°
2026-05-08 02:04 10.47143 104.66325 22845 ft 433 kts 188°
2026-05-08 02:04 10.44172 104.65781 23176 ft 436 kts 189°
2026-05-08 02:04 10.41183 104.65230 23490 ft 438 kts 189°
2026-05-08 02:05 10.38178 104.64677 23766 ft 440 kts 189°
2026-05-08 02:05 10.35157 104.64129 24033 ft 442 kts 189°
2026-05-08 02:05 10.32132 104.63584 24306 ft 443 kts 189°
2026-05-08 02:05 10.29083 104.63040 24588 ft 445 kts 189°
2026-05-08 02:06 10.26032 104.62498 24855 ft 446 kts 189°
2026-05-08 02:06 10.22966 104.61953 25125 ft 448 kts 189°
2026-05-08 02:06 10.19893 104.61404 25396 ft 450 kts 189°
2026-05-08 02:06 10.16805 104.60851 25666 ft 451 kts 189°
2026-05-08 02:07 10.13707 104.60296 25939 ft 453 kts 189°
2026-05-08 02:07 10.10600 104.59739 26205 ft 454 kts 189°
2026-05-08 02:07 10.07486 104.59182 26463 ft 456 kts 189°
2026-05-08 02:07 10.04354 104.58625 26719 ft 457 kts 189°
2026-05-08 02:08 10.01211 104.58082 26966 ft 459 kts 188°
2026-05-08 02:08 9.98061 104.57551 27227 ft 460 kts 188°
2026-05-08 02:08 9.94893 104.57022 27477 ft 462 kts 188°
2026-05-08 02:08 9.91717 104.56492 27746 ft 463 kts 188°
2026-05-08 02:09 9.88550 104.55958 28116 ft 461 kts 189°
2026-05-08 02:09 9.85389 104.55424 28504 ft 460 kts 189°
2026-05-08 02:09 9.82234 104.54892 28878 ft 459 kts 189°
2026-05-08 02:09 9.79082 104.54360 29259 ft 458 kts 189°
2026-05-08 02:10 9.75943 104.53833 29652 ft 457 kts 189°
2026-05-08 02:10 9.72808 104.53306 30040 ft 456 kts 189°
2026-05-08 02:10 9.69683 104.52776 30363 ft 455 kts 189°
2026-05-08 02:10 9.66561 104.52243 30683 ft 454 kts 189°
2026-05-08 02:11 9.63448 104.51711 31007 ft 454 kts 189°
2026-05-08 02:11 9.60336 104.51183 31338 ft 453 kts 189°
2026-05-08 02:11 9.57227 104.50660 31676 ft 452 kts 189°
2026-05-08 02:11 9.54123 104.50140 32011 ft 452 kts 189°
2026-05-08 02:12 9.51021 104.49620 32337 ft 452 kts 189°
2026-05-08 02:12 9.47921 104.49100 32671 ft 452 kts 189°
2026-05-08 02:12 9.44823 104.48577 33008 ft 451 kts 189°
2026-05-08 02:12 9.41728 104.48054 33346 ft 451 kts 189°
2026-05-08 02:13 9.38637 104.47529 33682 ft 450 kts 189°
2026-05-08 02:13 9.35549 104.47006 33994 ft 450 kts 189°
2026-05-08 02:13 9.32460 104.46484 34257 ft 450 kts 189°
2026-05-08 02:13 9.29411 104.45970 34511 ft 450 kts 189°
2026-05-08 02:14 9.26320 104.45449 34764 ft 450 kts 189°
2026-05-08 02:14 9.23230 104.44930 35014 ft 451 kts 189°
2026-05-08 02:14 9.20093 104.44405 35269 ft 451 kts 189°
2026-05-08 02:14 9.17039 104.43895 35515 ft 451 kts 189°
2026-05-08 02:15 9.14948 104.43544 35677 ft 451 kts 189°
2026-05-08 02:15 9.10842 104.42852 35881 ft 453 kts 189°
2026-05-08 02:15 9.04549 104.41792 35907 ft 462 kts 189°
2026-05-08 02:16 8.99218 104.40894 35905 ft 464 kts 189°
2026-05-08 02:16 8.92846 104.39821 35908 ft 464 kts 189°
2026-05-08 02:17 8.86471 104.38747 35908 ft 464 kts 189°
2026-05-08 02:17 8.80098 104.37675 35907 ft 464 kts 189°
2026-05-08 02:18 8.73728 104.36608 35909 ft 464 kts 189°
2026-05-08 02:18 8.67392 104.35547 35908 ft 465 kts 189°
2026-05-08 02:19 8.61013 104.34474 35912 ft 465 kts 189°
2026-05-08 02:19 8.54639 104.33394 35912 ft 465 kts 189°
2026-05-08 02:20 8.48256 104.32323 35913 ft 465 kts 188°
2026-05-08 02:20 8.41875 104.31263 35911 ft 465 kts 189°
2026-05-08 02:21 8.35494 104.30195 35914 ft 465 kts 188°
2026-05-08 02:21 8.29109 104.29120 35913 ft 465 kts 188°
2026-05-08 02:22 8.22719 104.28048 35913 ft 466 kts 188°
2026-05-08 02:22 8.16321 104.26978 35915 ft 466 kts 188°
2026-05-08 02:23 8.09929 104.25900 35914 ft 466 kts 188°
2026-05-08 02:23 8.03531 104.24833 35916 ft 466 kts 188°
2026-05-08 02:24 7.97137 104.23773 35915 ft 465 kts 188°
2026-05-08 02:24 7.90752 104.22698 35919 ft 465 kts 188°
2026-05-08 02:25 7.84373 104.21629 35917 ft 465 kts 188°
2026-05-08 02:25 7.77995 104.20568 35915 ft 464 kts 188°
2026-05-08 02:26 7.71626 104.19506 35917 ft 464 kts 188°
2026-05-08 02:26 7.65263 104.18441 35918 ft 463 kts 188°
2026-05-08 02:27 7.58901 104.17376 35913 ft 463 kts 188°
2026-05-08 02:27 7.52544 104.16313 35911 ft 463 kts 188°
2026-05-08 02:28 7.46192 104.15254 35911 ft 463 kts 188°
2026-05-08 02:28 7.39838 104.14196 35911 ft 463 kts 188°
2026-05-08 02:29 7.33490 104.13142 35911 ft 462 kts 188°
2026-05-08 02:29 7.27141 104.12091 35913 ft 462 kts 186°
2026-05-08 02:30 7.20744 104.12085 35915 ft 460 kts 176°
2026-05-08 02:30 7.14354 104.12428 35917 ft 460 kts 176°
2026-05-08 02:31 7.07960 104.12755 35913 ft 460 kts 176°
2026-05-08 02:31 7.01572 104.13086 35918 ft 460 kts 176°
2026-05-08 02:32 6.95245 104.13932 35920 ft 459 kts 170°
2026-05-08 02:32 6.88944 104.14944 35919 ft 458 kts 170°
2026-05-08 02:33 6.82646 104.15960 35920 ft 459 kts 170°
2026-05-08 02:33 6.76341 104.16981 35917 ft 459 kts 170°
2026-05-08 02:34 6.70042 104.18004 35917 ft 459 kts 170°
2026-05-08 02:34 6.63737 104.19027 35915 ft 459 kts 170°
2026-05-08 02:35 6.57433 104.20047 35911 ft 459 kts 170°
2026-05-08 02:35 6.51123 104.21061 35916 ft 459 kts 170°
2026-05-08 02:36 6.44813 104.22080 35915 ft 459 kts 170°
2026-05-08 02:36 6.38498 104.23095 35914 ft 460 kts 170°
2026-05-08 02:37 6.32184 104.24117 35913 ft 460 kts 170°
2026-05-08 02:37 6.25863 104.25137 35913 ft 460 kts 170°
2026-05-08 02:38 6.19542 104.26157 35915 ft 460 kts 170°
2026-05-08 02:38 6.13217 104.27174 35913 ft 460 kts 170°
2026-05-08 02:39 6.06896 104.28195 35914 ft 460 kts 170°
2026-05-08 02:39 6.00574 104.29217 35913 ft 460 kts 170°
2026-05-08 02:40 5.94249 104.30237 35911 ft 460 kts 170°
2026-05-08 02:40 5.87925 104.31254 35910 ft 460 kts 170°
2026-05-08 02:41 5.81601 104.32269 35908 ft 460 kts 170°
2026-05-08 02:41 5.75316 104.33278 35907 ft 461 kts 170°
2026-05-08 02:42 5.68986 104.34306 35911 ft 461 kts 170°
2026-05-08 02:42 5.62612 104.35336 35910 ft 461 kts 170°
2026-05-08 02:43 5.56274 104.36352 35917 ft 461 kts 170°
2026-05-08 02:43 5.49975 104.37368 35920 ft 462 kts 170°
2026-05-08 02:44 5.43634 104.38391 35918 ft 462 kts 170°
2026-05-08 02:44 5.37285 104.39408 35919 ft 462 kts 170°
2026-05-08 02:45 5.30937 104.40427 35922 ft 462 kts 170°
2026-05-08 02:45 5.24590 104.41450 35922 ft 462 kts 170°
2026-05-08 02:46 5.18240 104.42476 35926 ft 462 kts 170°
2026-05-08 02:46 5.11893 104.43498 35930 ft 462 kts 170°
2026-05-08 02:47 5.05550 104.44517 35926 ft 462 kts 170°
2026-05-08 02:47 4.99207 104.45539 35926 ft 462 kts 170°
2026-05-08 02:48 4.92862 104.46552 35927 ft 462 kts 170°
2026-05-08 02:48 4.86516 104.47568 35927 ft 462 kts 170°
2026-05-08 02:49 4.80147 104.48450 35930 ft 462 kts 172°
2026-05-08 02:49 4.73764 104.49201 35932 ft 462 kts 172°
2026-05-08 02:50 4.67380 104.49961 35933 ft 462 kts 172°
2026-05-08 02:50 4.61008 104.50765 35934 ft 461 kts 171°
2026-05-08 02:51 4.54642 104.51580 35929 ft 461 kts 171°
2026-05-08 02:51 4.48278 104.52382 35928 ft 461 kts 171°
2026-05-08 02:52 4.41919 104.53183 35931 ft 460 kts 171°
2026-05-08 02:52 4.35568 104.53982 35929 ft 460 kts 171°
2026-05-08 02:53 4.29213 104.54779 35928 ft 460 kts 172°
2026-05-08 02:53 4.22861 104.55575 35925 ft 460 kts 171°
2026-05-08 02:54 4.16507 104.56325 35927 ft 460 kts 173°
2026-05-08 02:54 4.10129 104.56934 35928 ft 460 kts 173°
2026-05-08 02:55 4.00567 104.57812 35928 ft 460 kts 173°
2026-05-08 02:56 3.94198 104.58435 35927 ft 460 kts 173°
2026-05-08 02:56 3.87824 104.59064 35922 ft 460 kts 173°
2026-05-08 02:57 3.81446 104.59686 35738 ft 461 kts 173°
2026-05-08 02:57 3.78259 104.59997 35503 ft 460 kts 173°
2026-05-08 02:57 3.75067 104.60311 35270 ft 461 kts 173°
2026-05-08 02:57 3.71916 104.60623 35041 ft 461 kts 173°
2026-05-08 02:58 3.68721 104.60938 34813 ft 462 kts 173°
2026-05-08 02:58 3.65522 104.61252 34588 ft 463 kts 173°
2026-05-08 02:58 3.62316 104.61567 34362 ft 463 kts 173°
2026-05-08 02:58 3.59106 104.61883 34141 ft 464 kts 173°
2026-05-08 02:59 3.55887 104.62198 33915 ft 465 kts 173°
2026-05-08 02:59 3.52666 104.62513 33666 ft 465 kts 173°
2026-05-08 02:59 3.49445 104.62831 33412 ft 466 kts 173°
2026-05-08 02:59 3.47304 104.63042 33234 ft 466 kts 173°
2026-05-08 03:00 3.42981 104.63467 32918 ft 467 kts 173°
2026-05-08 03:00 3.40842 104.63676 32758 ft 468 kts 173°
2026-05-08 03:00 3.37598 104.63991 32510 ft 468 kts 173°
2026-05-08 03:00 3.34354 104.64305 32268 ft 469 kts 173°
2026-05-08 03:01 3.31108 104.64623 32028 ft 469 kts 173°
2026-05-08 03:01 3.27857 104.64943 31791 ft 470 kts 173°
2026-05-08 03:01 3.24599 104.65265 31554 ft 470 kts 173°
2026-05-08 03:01 3.21343 104.65589 31319 ft 471 kts 173°
2026-05-08 03:02 3.18087 104.65912 31082 ft 471 kts 172°
2026-05-08 03:02 3.14821 104.66231 30852 ft 471 kts 173°
2026-05-08 03:02 3.11556 104.66538 30623 ft 472 kts 175°
2026-05-08 03:02 3.08270 104.66441 30394 ft 475 kts 186°
2026-05-08 03:03 3.05035 104.65696 30169 ft 479 kts 197°
2026-05-08 03:03 3.01991 104.64323 29952 ft 482 kts 209°
2026-05-08 03:03 2.99266 104.62361 29687 ft 486 kts 220°
2026-05-08 03:03 2.96900 104.59934 29425 ft 488 kts 226°
2026-05-08 03:04 2.94585 104.57442 29157 ft 489 kts 225°
2026-05-08 03:04 2.92262 104.54953 28902 ft 490 kts 225°
2026-05-08 03:04 2.89931 104.52465 28648 ft 491 kts 225°
2026-05-08 03:04 2.87593 104.49973 28389 ft 491 kts 225°
2026-05-08 03:05 2.85258 104.47482 28140 ft 491 kts 225°
2026-05-08 03:05 2.82927 104.44993 27890 ft 489 kts 225°
2026-05-08 03:05 2.80606 104.42513 27647 ft 488 kts 225°
2026-05-08 03:05 2.78292 104.40039 27387 ft 486 kts 225°
2026-05-08 03:06 2.75991 104.37579 26671 ft 483 kts 225°
2026-05-08 03:06 2.73705 104.35139 25926 ft 480 kts 225°
2026-05-08 03:06 2.71451 104.32738 25200 ft 478 kts 225°
2026-05-08 03:06 2.69183 104.30318 24469 ft 476 kts 225°
2026-05-08 03:07 2.66922 104.27900 23745 ft 475 kts 225°
2026-05-08 03:07 2.64673 104.25490 22931 ft 473 kts 225°
2026-05-08 03:07 2.62435 104.23096 22219 ft 468 kts 225°
2026-05-08 03:07 2.60222 104.20731 21620 ft 461 kts 225°
2026-05-08 03:08 2.58072 104.18436 21476 ft 444 kts 225°
2026-05-08 03:08 2.56002 104.16226 21353 ft 428 kts 225°
2026-05-08 03:08 2.53999 104.14087 21227 ft 414 kts 225°
2026-05-08 03:08 2.51864 104.12255 21101 ft 398 kts 211°
2026-05-08 03:09 2.49436 104.11067 20984 ft 381 kts 195°
2026-05-08 03:09 2.46902 104.10538 20825 ft 364 kts 182°
2026-05-08 03:09 2.44410 104.10484 20240 ft 355 kts 178°
2026-05-08 03:09 2.41955 104.10487 19591 ft 351 kts 177°
2026-05-08 03:10 2.39527 104.10494 18959 ft 347 kts 178°
2026-05-08 03:10 2.37127 104.10499 18405 ft 342 kts 178°
2026-05-08 03:10 2.34762 104.10501 17901 ft 338 kts 178°
2026-05-08 03:10 2.32418 104.10503 17441 ft 336 kts 178°
2026-05-08 03:11 2.30085 104.10503 16999 ft 336 kts 178°
2026-05-08 03:11 2.27747 104.10503 16554 ft 335 kts 178°
2026-05-08 03:11 2.25420 104.10502 16196 ft 332 kts 178°
2026-05-08 03:11 2.23109 104.10502 15785 ft 331 kts 178°
2026-05-08 03:12 2.20830 104.10501 15303 ft 325 kts 178°
2026-05-08 03:12 2.18583 104.10502 14816 ft 320 kts 178°
2026-05-08 03:12 2.16363 104.10503 14393 ft 319 kts 178°
2026-05-08 03:12 2.14144 104.10504 13961 ft 318 kts 179°
2026-05-08 03:13 2.11971 104.10505 13535 ft 316 kts 179°
2026-05-08 03:13 2.09747 104.10504 13093 ft 314 kts 179°
2026-05-08 03:13 2.07602 104.10504 12683 ft 311 kts 179°
2026-05-08 03:13 2.05452 104.10502 12343 ft 308 kts 179°
2026-05-08 03:14 2.03311 104.10501 12048 ft 303 kts 179°
2026-05-08 03:14 2.01271 104.10499 11921 ft 284 kts 179°
2026-05-08 03:14 1.99332 104.10497 11741 ft 274 kts 179°
2026-05-08 03:14 1.97436 104.10500 11470 ft 271 kts 179°
2026-05-08 03:15 1.95551 104.10509 11183 ft 271 kts 179°
2026-05-08 03:15 1.93684 104.10517 10841 ft 266 kts 179°
2026-05-08 03:15 1.91845 104.10525 10466 ft 262 kts 179°
2026-05-08 03:15 1.90017 104.10534 10106 ft 263 kts 179°
2026-05-08 03:16 1.88197 104.10543 9736 ft 260 kts 179°
2026-05-08 03:16 1.86396 104.10553 9352 ft 257 kts 180°
2026-05-08 03:16 1.84614 104.10565 8994 ft 256 kts 180°
2026-05-08 03:16 1.82830 104.10575 8639 ft 257 kts 180°
2026-05-08 03:17 1.81051 104.10585 8284 ft 253 kts 180°
2026-05-08 03:17 1.79299 104.10594 7938 ft 251 kts 180°
2026-05-08 03:17 1.77559 104.10601 7592 ft 250 kts 181°
2026-05-08 03:17 1.75829 104.10608 7248 ft 248 kts 180°
2026-05-08 03:18 1.74107 104.10616 6909 ft 247 kts 180°
2026-05-08 03:18 1.72409 104.10936 6565 ft 250 kts 162°
2026-05-08 03:18 1.70809 104.11615 6205 ft 249 kts 156°
2026-05-08 03:18 1.69249 104.12342 5836 ft 244 kts 163°
2026-05-08 03:19 1.67605 104.12366 5471 ft 239 kts 202°
2026-05-08 03:19 1.66303 104.11392 5111 ft 234 kts 230°
2026-05-08 03:19 1.65132 104.10312 4756 ft 228 kts 206°
2026-05-08 03:19 1.63632 104.09820 4407 ft 233 kts 199°
2026-05-08 03:20 1.62120 104.09249 4028 ft 231 kts 203°
2026-05-08 03:20 1.60658 104.08629 3693 ft 225 kts 204°
2026-05-08 03:20 1.59236 104.08025 3451 ft 220 kts 204°
2026-05-08 03:20 1.57848 104.07438 3208 ft 213 kts 203°
2026-05-08 03:21 1.56514 104.06875 3045 ft 204 kts 204°
2026-05-08 03:21 1.55225 104.06330 3002 ft 199 kts 204°
2026-05-08 03:21 1.53947 104.05790 3005 ft 199 kts 203°
2026-05-08 03:21 1.52696 104.05262 3005 ft 188 kts 203°
2026-05-08 03:22 1.51527 104.04768 2841 ft 179 kts 203°
2026-05-08 03:22 1.50405 104.04295 2645 ft 170 kts 203°
2026-05-08 03:22 1.49375 104.03860 2446 ft 153 kts 203°
2026-05-08 03:22 1.48426 104.03459 2255 ft 145 kts 203°
2026-05-08 03:23 1.47504 104.03070 2069 ft 143 kts 203°
2026-05-08 03:23 1.46588 104.02683 1889 ft 143 kts 204°
2026-05-08 03:23 1.45676 104.02297 1697 ft 142 kts 203°
2026-05-08 03:23 1.44769 104.01914 1518 ft 141 kts 203°
2026-05-08 03:24 1.43861 104.01532 1347 ft 141 kts 204°
2026-05-08 03:24 1.42968 104.01154 1180 ft 141 kts 203°
2026-05-08 03:24 1.42056 104.00767 972 ft 140 kts 204°
2026-05-08 03:24 1.41164 104.00391 788 ft 139 kts 204°
2026-05-08 03:25 1.40276 104.00015 629 ft 139 kts 202°
2026-05-08 03:25 1.39393 103.99642 456 ft 138 kts 201°
2026-05-08 03:25 1.38517 103.99270 284 ft 136 kts 201°
2026-05-08 03:25 1.37650 103.98905 98 ft 135 kts 201°
2026-05-08 03:26 1.36828 103.98558 28 ft 117 kts 200°
2026-05-08 03:26 1.36209 103.98305 24 ft 74 kts 202°
2026-05-08 03:26 1.35886 103.98169 24 ft 34 kts 203°
2026-05-08 03:26 1.35708 103.98115 24 ft 22 kts 188°
2026-05-08 03:27 1.35579 103.98119 24 ft 16 kts 173°
2026-05-08 03:27 1.35522 103.98171 24 ft 13 kts 95°
2026-05-08 03:27 1.35571 103.98230 24 ft 10 kts 24°
2026-05-08 03:27 1.35644 103.98261 25 ft 13 kts 22°
2026-05-08 03:28 1.35731 103.98297 24 ft 15 kts 23°
2026-05-08 03:28 1.35833 103.98340 24 ft 17 kts 23°
2026-05-08 03:28 1.35949 103.98389 27 ft 19 kts 23°
2026-05-08 03:28 1.36078 103.98444 24 ft 21 kts 22°
2026-05-08 03:29 1.36214 103.98501 26 ft 21 kts 23°
2026-05-08 03:29 1.36337 103.98553 25 ft 18 kts 23°
2026-05-08 03:29 1.36447 103.98600 25 ft 18 kts 23°
2026-05-08 03:29 1.36570 103.98651 24 ft 20 kts 23°
2026-05-08 03:30 1.36804 103.98750 24 ft 14 kts 25°
2026-05-08 03:30 1.36786 103.98903 24 ft 13 kts 113°
2026-05-08 03:31 1.36711 103.99080 24 ft 12 kts 112°
2026-05-08 03:31 1.36618 103.99126 24 ft 0 kts 173°
2026-05-08 03:32 1.36617 103.99126 24 ft 1 kts 173°
2026-05-08 03:32 1.36620 103.99104 24 ft 5 kts 329°
2026-05-08 03:32 1.36651 103.99085 24 ft 5 kts 296°
2026-05-08 03:32 1.36654 103.99047 24 ft 2 kts 271°
2026-05-08 03:33 1.36655 103.99039 24 ft 0 kts 272°